OBJECT C

Last updated on Thu Jun 09 2022 01:02:05 GMT+0100 (British Summer Time)

1 52799U 22060C 22158.63088778 .13393469 67337-5 55675-2 0 9996 2 52799 41.3128 276.8905 0142897 134.7881 263.1502 16.02431565 409

Satellite not in orbit